When you browse on this site, cookies collect data to enhance your experience and personalize the content and advertising you see.
Visit our Privacy Policy to learn more. By continuing to use the site, you agree to this use of cookies and data.
  • In Österreich
  • Länderverzeichnis
  • Für 7 Tage
  • Wassertemperatur
  • Wetterkarte
  • News
  • Widgets
  • user-avatar
    Anmelden

    Stündliche Wetter Kyrdshali

    Heute, 3 Juni, Mittwoch

    Zeit Temperatur Niederschläge Wind Luftdruck Luftfeuchtigkeit
    00:00 +12°C° 0 mm 1 m/S 721 mmHg 85%
    01:00 +12°C° 0 mm 1 m/S 721 mmHg 84%
    02:00 +11°C° 0 mm 1 m/S 721 mmHg 84%
    03:00 +11°C° 0 mm 1 m/S 721 mmHg 84%
    04:00 +10°C° 0 mm 1 m/S 721 mmHg 84%
    05:00 +10°C° 0 mm 1 m/S 721 mmHg 85%
    06:00 +11°C° 0 mm 1 m/S 721 mmHg 81%
    07:00 +12°C° 0 mm 0 m/S 722 mmHg 77%
    08:00 +14°C° 0 mm 0 m/S 722 mmHg 73%
    09:00 +15°C° 0.3 mm 1 m/S 722 mmHg 71%
    10:00 +16°C° 0.3 mm 1 m/S 722 mmHg 69%
    11:00 +17°C° 0.3 mm 2 m/S 722 mmHg 66%
    12:00 +17°C° 1.1 mm 2 m/S 722 mmHg 69%
    13:00 +17°C° 1.1 mm 2 m/S 722 mmHg 72%
    14:00 +17°C° 1.1 mm 3 m/S 721 mmHg 74%
    15:00 +17°C° 0.9 mm 3 m/S 721 mmHg 74%
    16:00 +17°C° 0.9 mm 3 m/S 721 mmHg 75%
    17:00 +17°C° 0.9 mm 3 m/S 721 mmHg 75%
    18:00 +16°C° 0.2 mm 3 m/S 721 mmHg 80%
    19:00 +14°C° 0.2 mm 3 m/S 721 mmHg 84%
    20:00 +13°C° 0.2 mm 2 m/S 721 mmHg 89%
    21:00 +13°C° 0 mm 2 m/S 721 mmHg 89%
    22:00 +12°C° 0 mm 2 m/S 721 mmHg 89%
    23:00 +12°C° 0 mm 2 m/S 721 mmHg 90%

    Morgen, 4 Juni, Donnerstag

    Zeit Temperatur Niederschläge Wind Luftdruck Luftfeuchtigkeit
    00:00 +10°C° 0 mm 2 m/S 721 mmHg 89%
    01:00 +11°C° 0 mm 1 m/S 721 mmHg 89%
    02:00 +11°C° 0 mm 1 m/S 721 mmHg 88%
    03:00 +11°C° 0 mm 1 m/S 721 mmHg 88%
    04:00 +11°C° 0 mm 1 m/S 721 mmHg 88%
    05:00 +11°C° 0 mm 1 m/S 721 mmHg 88%
    06:00 +13°C° 0 mm 1 m/S 722 mmHg 83%
    07:00 +15°C° 0 mm 1 m/S 722 mmHg 78%
    08:00 +18°C° 0 mm 1 m/S 722 mmHg 74%
    09:00 +19°C° 0 mm 2 m/S 723 mmHg 69%
    10:00 +20°C° 0 mm 3 m/S 723 mmHg 64%
    11:00 +22°C° 0 mm 3 m/S 724 mmHg 59%
    12:00 +22°C° 0.1 mm 4 m/S 723 mmHg 61%
    13:00 +22°C° 0.1 mm 5 m/S 723 mmHg 62%
    14:00 +22°C° 0.1 mm 5 m/S 723 mmHg 64%
    15:00 +22°C° 0 mm 5 m/S 723 mmHg 66%
    16:00 +22°C° 0 mm 6 m/S 723 mmHg 68%
    17:00 +21°C° 0 mm 6 m/S 723 mmHg 70%
    18:00 +19°C° 0 mm 5 m/S 723 mmHg 76%
    19:00 +18°C° 0 mm 4 m/S 723 mmHg 82%
    20:00 +15°C° 0 mm 4 m/S 723 mmHg 88%
    21:00 +15°C° 0 mm 4 m/S 723 mmHg 89%
    22:00 +14°C° 0 mm 3 m/S 723 mmHg 90%
    23:00 +14°C° 0 mm 3 m/S 724 mmHg 92%

    übermorgen, 5 Juni, Freitag

    Zeit Temperatur Niederschläge Wind Luftdruck Luftfeuchtigkeit
    00:00 +13°C° 0 mm 3 m/S 723 mmHg 92%
    01:00 +13°C° 0 mm 3 m/S 723 mmHg 92%
    02:00 +13°C° 0 mm 3 m/S 723 mmHg 92%
    03:00 +13°C° 0 mm 3 m/S 723 mmHg 92%
    04:00 +13°C° 0 mm 3 m/S 723 mmHg 92%
    05:00 +13°C° 0 mm 3 m/S 723 mmHg 93%
    06:00 +15°C° 0 mm 4 m/S 723 mmHg 89%
    07:00 +17°C° 0 mm 4 m/S 724 mmHg 85%
    08:00 +19°C° 0 mm 5 m/S 724 mmHg 81%
    09:00 +20°C° 0 mm 6 m/S 724 mmHg 78%
    10:00 +21°C° 0 mm 7 m/S 724 mmHg 75%
    11:00 +22°C° 0 mm 7 m/S 724 mmHg 71%
    12:00 +22°C° 0 mm 8 m/S 724 mmHg 71%
    13:00 +22°C° 0 mm 8 m/S 723 mmHg 70%
    14:00 +22°C° 0 mm 8 m/S 723 mmHg 69%
    15:00 +22°C° 0 mm 8 m/S 723 mmHg 71%
    16:00 +21°C° 0 mm 8 m/S 722 mmHg 73%
    17:00 +21°C° 0 mm 8 m/S 722 mmHg 75%
    18:00 +18°C° 0 mm 7 m/S 722 mmHg 80%
    19:00 +17°C° 0 mm 5 m/S 722 mmHg 85%
    20:00 +15°C° 0 mm 4 m/S 722 mmHg 90%
    21:00 +15°C° 0 mm 4 m/S 722 mmHg 91%
    22:00 +14°C° 0 mm 3 m/S 722 mmHg 92%
    23:00 +14°C° 0 mm 3 m/S 723 mmHg 93%

    6 Juni, Samstag

    Zeit Temperatur Niederschläge Wind Luftdruck Luftfeuchtigkeit
    00:00 +14°C° 0 mm 3 m/S 722 mmHg 92%
    01:00 +14°C° 0 mm 3 m/S 722 mmHg 90%
    02:00 +16°C° 0 mm 3 m/S 722 mmHg 89%
    03:00 +14°C° 0 mm 3 m/S 722 mmHg 89%
    04:00 +15°C° 0 mm 2 m/S 722 mmHg 89%
    05:00 +15°C° 0 mm 2 m/S 723 mmHg 89%
    06:00 +16°C° 0.1 mm 2 m/S 723 mmHg 85%
    07:00 +17°C° 0.1 mm 2 m/S 723 mmHg 80%
    08:00 +19°C° 0.1 mm 2 m/S 724 mmHg 76%
    09:00 +19°C° 0.2 mm 2 m/S 724 mmHg 69%
    10:00 +20°C° 0.2 mm 2 m/S 724 mmHg 63%
    11:00 +21°C° 0.2 mm 2 m/S 724 mmHg 56%
    12:00 +22°C° 0.1 mm 3 m/S 724 mmHg 54%
    13:00 +22°C° 0.1 mm 3 m/S 724 mmHg 51%
    14:00 +23°C° 0.1 mm 4 m/S 724 mmHg 48%
    15:00 +22°C° 0.1 mm 3 m/S 724 mmHg 52%
    16:00 +22°C° 0.1 mm 3 m/S 723 mmHg 55%
    17:00 +21°C° 0.1 mm 2 m/S 723 mmHg 59%
    18:00 +19°C° 0 mm 2 m/S 723 mmHg 61%
    19:00 +19°C° 0 mm 1 m/S 723 mmHg 63%
    20:00 +16°C° 0 mm 1 m/S 723 mmHg 66%
    21:00 +16°C° 0 mm 1 m/S 723 mmHg 67%
    22:00 +15°C° 0 mm 1 m/S 723 mmHg 67%
    23:00 +15°C° 0 mm 1 m/S 723 mmHg 68%

    7 Juni, Sonntag

    Zeit Temperatur Niederschläge Wind Luftdruck Luftfeuchtigkeit
    00:00 +14°C° 0 mm 1 m/S 723 mmHg 70%
    01:00 +14°C° 0 mm 1 m/S 723 mmHg 71%
    02:00 +13°C° 0 mm 1 m/S 723 mmHg 72%
    03:00 +13°C° 0 mm 1 m/S 723 mmHg 73%
    04:00 +13°C° 0 mm 1 m/S 723 mmHg 74%
    05:00 +13°C° 0 mm 1 m/S 723 mmHg 74%
    06:00 +15°C° 0 mm 1 m/S 723 mmHg 71%
    07:00 +16°C° 0 mm 0 m/S 724 mmHg 67%
    08:00 +18°C° 0 mm 0 m/S 724 mmHg 63%
    09:00 +22°C° 0 mm 1 m/S 724 mmHg 60%
    10:00 +23°C° 0 mm 1 m/S 725 mmHg 58%
    11:00 +25°C° 0 mm 1 m/S 725 mmHg 56%
    12:00 +25°C° 0 mm 2 m/S 725 mmHg 55%
    13:00 +26°C° 0 mm 2 m/S 724 mmHg 55%
    14:00 +26°C° 0 mm 3 m/S 724 mmHg 54%
    15:00 +26°C° 0 mm 3 m/S 724 mmHg 58%
    16:00 +26°C° 0 mm 3 m/S 723 mmHg 61%
    17:00 +25°C° 0 mm 3 m/S 723 mmHg 64%
    18:00 +23°C° 0.1 mm 2 m/S 723 mmHg 72%
    19:00 +20°C° 0.1 mm 2 m/S 723 mmHg 79%
    20:00 +18°C° 0.1 mm 2 m/S 723 mmHg 87%
    21:00 +18°C° 0 mm 2 m/S 723 mmHg 87%
    22:00 +18°C° 0 mm 1 m/S 723 mmHg 88%
    23:00 +16°C° 0 mm 1 m/S 723 mmHg 88%

    8 Juni, Montag

    Zeit Temperatur Niederschläge Wind Luftdruck Luftfeuchtigkeit
    00:00 +16°C° 0 mm 1 m/S 723 mmHg 88%
    01:00 +16°C° 0 mm 1 m/S 723 mmHg 88%
    02:00 +16°C° 0 mm 1 m/S 723 mmHg 88%
    03:00 +16°C° 0 mm 1 m/S 723 mmHg 88%
    04:00 +15°C° 0 mm 1 m/S 723 mmHg 88%
    05:00 +15°C° 0 mm 1 m/S 723 mmHg 88%
    06:00 +16°C° 0 mm 0 m/S 723 mmHg 84%
    07:00 +18°C° 0 mm 0 m/S 723 mmHg 79%
    08:00 +20°C° 0 mm 0 m/S 724 mmHg 74%
    09:00 +23°C° 0 mm 1 m/S 724 mmHg 71%
    10:00 +24°C° 0 mm 1 m/S 724 mmHg 67%
    11:00 +25°C° 0 mm 1 m/S 724 mmHg 64%
    12:00 +26°C° 0.2 mm 1 m/S 724 mmHg 63%
    13:00 +26°C° 0.2 mm 1 m/S 723 mmHg 61%
    14:00 +27°C° 0.2 mm 1 m/S 723 mmHg 60%
    15:00 +26°C° 1.2 mm 1 m/S 723 mmHg 63%
    16:00 +25°C° 1.2 mm 1 m/S 723 mmHg 66%
    17:00 +25°C° 1.2 mm 1 m/S 723 mmHg 69%
    18:00 +23°C° 0.3 mm 1 m/S 722 mmHg 74%
    19:00 +22°C° 0.3 mm 1 m/S 722 mmHg 78%
    20:00 +20°C° 0.3 mm 1 m/S 722 mmHg 82%
    21:00 +19°C° 0.2 mm 1 m/S 722 mmHg 84%
    22:00 +19°C° 0.2 mm 1 m/S 722 mmHg 85%
    23:00 +18°C° 0.2 mm 1 m/S 723 mmHg 86%
    Mehr zeigen